Wind_Speed
10 25 25 23 22 22 22 21 21 21 21 22 22 23 23 22 21 20 18 16 16 16 16 15 15 15 15 14 14 13 13 14 16 17 19 17 17 16 15 17 20 19 19
23 24 24 23 21 21 21 22 22 21 20 21 21 21 21 21 19 19 18 17 16 16 17 16 15 14 14 14 14 13 13 14 16 20 21 17 16 16 15 18 19 20 19
29 26 25 24 22 20 20 21 21 21 21 21 22 21 21 20 20 18 18 17 17 17 17 17 16 16 15 15 14 14 14 15 17 19 18 17 16 15 17 19 19 19 18
29 27 27 26 25 24 20 21 20 20 20 21 21 21 21 20 19 18 17 17 16 18 20 19 19 17 16 16 15 15 14 13 15 15 14 15 14 16 18 21 20 19 18
26 27 26 26 25 24 22 22 21 20 19 20 20 20 20 19 18 17 16 15 15 17 19 21 20 18 16 17 18 18 18 16 14 13 12 12 17 17 20 21 19 18 16
22 26 26 25 25 24 24 24 24 22 20 19 21 20 18 17 16 15 16 13 12 18 17 21 19 16 15 16 16 17 17 16 15 16 14 14 17 19 20 20 19 17 17
22 24 25 24 25 26 25 24 25 23 22 20 20 20 18 17 17 16 17 16 17 20 21 20 16 14 12 13 16 17 15 12 15 14 13 13 17 18 17 18 19 16 16
22 24 25 24 24 25 26 25 25 24 23 22 22 22 20 18 17 17 18 17 17 19 18 16 13 12 12 13 15 17 13 15 17 14 10 9 11 15 15 18 18 16 16
23 24 25 22 22 23 25 25 25 25 24 22 22 22 21 19 18 18 18 17 16 16 15 13 13 15 14 13 14 17 15 18 14 12 10 10 13 15 14 17 17 17 16
21 23 22 23 21 22 24 25 24 24 24 23 22 21 21 19 19 19 19 19 16 13 12 12 15 17 13 15 19 18 21 16 12 11 9 10 14 14 16 18 18 16 17
21 22 22 21 22 23 23 23 23 23 24 23 22 21 20 20 19 20 22 21 17 14 13 12 18 17 16 19 20 19 19 15 13 11 8 8 16 16 17 18 18 19 19
20 23 24 24 24 24 25 25 25 25 24 23 23 22 22 21 21 23 23 22 18 15 14 14 17 19 20 20 19 18 18 15 11 8 4 2 18 19 18 18 20 21 21
21 21 25 26 25 25 28 27 27 26 25 25 24 23 23 22 22 25 25 23 20 18 17 16 18 22 23 22 18 17 18 13 10 7 5 2 16 18 19 21 22 22 20
18 22 24 26 25 24 27 28 28 28 29 27 28 28 26 24 24 26 28 26 23 22 21 20 21 22 24 22 18 17 14 13 10 8 8 7 14 20 20 20 19 17 9
25 23 22 26 25 25 25 27 29 30 31 31 31 30 29 29 29 29 30 29 27 24 24 24 24 24 26 21 19 18 13 13 12 9 9 10 8 12 14 15 15 13 12
19 16 21 21 25 27 28 27 28 29 31 32 32 32 32 31 32 33 33 32 30 28 27 26 27 28 27 22 19 19 18 16 14 15 11 8 5 10 12 13 14 11 8
29 22 15 11 16 23 27 30 30 30 30 33 34 35 34 34 35 35 35 35 33 31 28 28 28 28 27 23 21 20 18 19 19 19 17 12 9 8 9 12 10 9 8
35 34 23 17 10 8 18 27 30 33 33 33 33 35 36 37 36 36 37 38 36 33 31 29 29 30 30 25 24 21 18 21 21 21 19 13 11 13 12 9 10 9 11
35 35 34 26 22 15 8 18 26 30 32 34 35 34 35 37 38 37 38 39 37 35 33 31 32 32 31 28 25 22 21 18 20 20 18 13 11 15 13 14 14 13 11
33 34 34 32 29 23 15 11 17 25 31 29 35 37 36 35 37 39 39 38 38 36 34 31 32 34 34 30 27 24 21 21 21 21 20 15 13 14 14 14 16 18 13
36 37 36 35 35 30 28 23 8 8 20 29 29 29 34 36 36 38 40 40 39 38 37 36 32 31 27 28 28 17 15 18 20 23 23 21 20 15 13 14 15 21 16
35 36 36 34 33 30 28 22 17 19 15 15 27 31 29 29 33 38 40 40 40 37 36 35 30 28 24 34 19 19 3 3 14 19 22 24 23 17 16 17 16 20 20
36 36 34 33 31 30 31 25 23 17 12 16 21 24 30 31 33 34 39 40 41 40 38 38 38 31 26 33 26 12 3 4 5 10 20 23 22 20 18 19 18 19 19
35 34 34 34 32 31 31 29 26 17 20 19 22 25 28 31 37 40 39 41 42 42 38 41 44 37 29 26 25 20 17 15 4 3 14 22 22 23 22 22 20 21 20
30 32 33 33 29 34 32 29 25 24 25 27 24 24 29 33 37 43 44 45 42 42 40 42 38 41 35 26 29 20 18 14 14 4 4 10 22 24 25 27 25 25 24
31 31 34 33 33 33 31 30 28 27 29 29 25 21 26 29 28 34 37 43 42 42 41 43 43 39 39 35 35 28 22 10 8 5 3 8 15 18 26 26 25 24 25
Wind_Direction
187 172 173 173 166 163 160 157 157 157 157 157 157 154 152 153 153 154 151 145 142 138 136 135 131 127 126 125 126 128 127 128 129 130 125 127 127 123 116 111 109 103 94
166 173 174 173 169 166 164 163 161 158 156 151 151 154 155 155 151 151 148 145 143 140 139 139 135 134 135 133 131 130 129 133 136 135 133 130 129 128 125 123 116 104 98
169 174 175 175 174 174 171 170 165 160 158 155 151 151 153 153 153 155 152 150 149 148 146 141 136 133 135 137 134 132 130 131 135 141 141 135 131 133 135 125 112 107 102
172 177 179 178 179 180 180 176 170 166 161 156 157 155 155 154 154 154 154 156 159 162 157 148 143 138 135 134 131 130 132 132 135 142 146 145 141 141 133 124 118 114 106
176 181 184 183 184 183 182 182 177 173 169 165 163 163 161 159 157 158 159 167 176 171 162 153 149 138 133 132 129 130 132 129 133 135 150 151 151 145 138 123 122 116 107
183 186 186 188 190 189 187 185 183 178 175 173 171 173 170 165 162 166 170 164 163 175 170 155 153 143 141 142 140 141 139 133 132 123 122 145 151 139 127 128 125 117 108
184 190 192 193 195 196 194 190 187 184 181 176 175 181 174 173 168 167 163 154 146 148 155 157 161 159 158 160 157 155 154 152 146 132 123 121 131 128 128 137 125 117 111
188 191 195 200 200 201 197 194 193 189 187 185 185 187 185 181 178 181 172 166 157 154 158 164 172 173 168 162 164 163 160 156 149 140 137 141 144 135 140 139 129 125 118
199 194 195 203 205 205 203 198 196 195 193 193 191 190 190 188 188 189 184 179 172 167 166 165 166 160 160 163 169 161 159 155 156 154 146 152 151 148 150 146 135 134 124
203 202 205 202 204 207 204 204 202 198 199 197 198 198 193 192 195 195 191 188 182 179 172 165 163 157 157 152 151 152 158 161 165 162 159 163 162 162 162 154 146 139 127
208 210 208 210 203 207 209 209 207 203 203 201 202 202 200 196 197 196 195 191 191 190 183 173 167 167 163 150 153 156 162 168 166 160 154 172 169 170 168 163 153 140 132
211 213 211 208 209 210 211 210 207 205 205 205 205 202 201 200 198 200 199 197 198 197 188 179 171 167 168 160 162 164 163 163 173 147 139 164 177 171 168 163 153 141 133
219 219 210 210 212 214 213 211 209 210 206 207 207 206 202 200 200 203 199 198 197 195 188 183 174 175 174 166 164 172 163 163 170 147 129 119 170 163 160 157 149 146 133
252 229 225 223 222 222 216 214 214 213 210 211 209 207 205 202 201 200 198 198 198 195 191 186 181 177 175 170 170 167 164 176 178 158 149 138 129 139 138 137 142 145 151
278 262 242 233 232 228 224 221 218 218 217 216 214 212 206 204 202 200 200 201 200 198 197 191 188 185 181 178 175 189 188 182 185 198 166 149 155 157 150 147 147 144 143
343 307 277 260 237 233 230 232 229 229 225 221 219 216 213 211 207 202 204 205 204 201 201 200 195 194 193 193 184 194 197 207 199 204 190 186 195 178 164 161 156 154 154
355 353 344 299 271 250 236 231 233 237 235 228 225 221 218 215 212 210 207 210 207 205 204 205 202 199 199 202 202 194 198 206 209 201 189 206 213 205 209 211 196 205 243
358 358 356 357 351 272 254 245 235 233 233 237 234 228 223 220 220 216 214 214 210 207 205 203 204 201 201 201 197 191 202 204 211 194 192 198 228 224 205 206 210 224 218
1 358 358 358 353 344 311 251 242 237 236 235 235 235 232 227 223 222 219 218 214 209 205 204 200 200 197 197 188 185 196 201 189 191 193 208 219 204 219 231 223 220 202
6 4 360 358 355 351 347 330 248 236 237 232 233 234 233 231 228 224 223 219 213 209 206 204 201 198 195 191 187 188 192 200 199 204 203 208 209 209 218 231 212 195 193
9 6 1 359 358 357 354 354 342 306 246 236 232 232 231 232 231 228 225 221 215 207 204 204 199 197 193 186 167 164 177 195 200 205 204 198 209 218 221 220 210 191 196
3 2 360 358 359 359 353 344 325 303 280 264 245 234 229 227 229 230 225 219 212 203 201 199 193 192 192 189 180 154 133 193 207 204 205 201 201 216 219 218 217 209 205
2 355 353 356 357 359 360 350 341 322 314 280 260 247 238 237 233 233 229 221 211 204 198 197 196 199 187 194 194 170 139 194 148 207 204 201 204 214 220 220 218 218 219
358 354 350 355 355 1 3 0 355 344 327 313 289 265 253 241 236 235 227 223 216 203 198 198 201 202 192 194 192 201 186 151 166 175 212 207 207 205 211 223 222 222 225
351 354 351 353 350 1 3 2 356 350 336 326 301 270 253 251 239 231 226 219 215 207 203 200 198 194 199 197 196 189 167 166 161 139 184 204 222 220 214 216 228 227 226
349 348 355 349 353 355 359 1 358 354 344 335 328 295 242 234 229 221 215 215 215 208 203 202 203 199 197 199 197 192 181 172 174 152 128 182 207 219 218 217 219 223 225
Height
758 761 763 767 769 771 773 775 777 779 780 782 785 787 789 792 795 798 799 801 803 804 806 808 810 811 812 813 814 815 817 818 819 819 821 822 824 825 826 827 828 829 830
756 763 765 768 771 772 774 776 778 780 782 783 785 788 790 793 796 798 800 802 804 805 807 809 810 812 813 814 815 816 817 819 819 821 821 823 825 827 828 829 829 831 832
757 762 765 768 772 775 777 778 780 781 783 785 787 789 790 793 796 799 800 802 804 806 808 810 812 813 815 815 817 818 819 820 821 823 823 825 827 828 830 831 832 833 834
758 761 764 767 771 774 777 779 781 783 785 787 788 790 792 794 797 799 801 803 805 806 808 810 813 814 815 817 818 819 821 822 823 824 825 826 828 829 831 832 834 836 836
761 763 766 768 771 774 776 779 782 784 786 788 790 792 793 795 796 800 802 803 805 806 808 811 813 814 816 818 819 821 821 823 824 825 826 827 829 830 831 833 835 837 837
763 765 766 769 772 774 776 778 781 783 786 789 792 793 795 797 799 800 802 803 804 806 809 811 814 815 817 819 820 822 823 824 826 826 827 828 829 831 833 835 836 838 839
763 765 767 769 771 774 776 777 779 782 785 788 791 794 796 798 800 801 803 804 805 807 810 812 813 815 817 819 821 822 825 825 827 828 829 830 831 833 835 836 838 840 841
762 764 767 769 770 773 774 777 780 782 784 787 790 793 796 798 800 802 804 805 807 808 810 812 814 815 817 819 820 823 825 826 827 829 831 832 834 835 837 838 839 841 843
763 764 765 769 771 773 774 776 778 781 784 787 789 791 795 797 800 802 804 806 808 809 810 811 813 815 817 818 820 823 825 828 829 830 831 833 834 836 838 839 841 843 844
763 765 765 767 769 773 774 775 777 781 784 786 789 792 794 796 799 801 803 806 808 810 810 811 813 815 818 819 821 823 826 828 830 831 832 834 836 837 839 840 842 844 845
762 763 765 766 767 770 773 775 777 780 782 784 787 790 793 795 798 800 802 805 807 809 811 812 813 816 819 820 822 825 827 829 831 832 833 833 835 837 839 841 843 845 847
760 762 763 764 766 768 770 773 775 777 780 783 786 788 791 794 797 799 802 804 807 809 811 812 814 816 819 821 823 825 828 830 831 832 832 832 833 836 839 841 843 846 848
758 759 760 762 764 765 768 770 772 775 777 780 783 787 789 792 794 797 801 804 806 808 811 813 814 816 818 821 823 826 828 830 831 833 833 833 833 836 838 841 844 846 848
760 758 758 760 763 764 765 767 769 772 774 776 778 782 786 789 792 795 798 801 804 806 809 811 815 816 819 821 822 826 828 830 832 833 835 835 835 837 840 843 845 848 849
759 759 757 758 760 762 764 766 767 769 771 773 776 779 782 784 788 792 795 798 801 804 807 809 813 816 818 820 822 826 828 831 833 834 835 836 838 840 841 844 847 848 851
760 757 757 756 757 758 760 761 763 765 768 770 772 775 778 780 784 787 791 794 798 801 805 808 810 813 817 820 821 825 828 831 833 835 836 837 838 841 842 844 846 849 850
767 761 755 755 755 755 755 756 757 760 764 765 767 770 774 776 779 783 787 790 794 798 802 806 809 812 815 818 821 823 826 829 832 834 836 838 838 840 842 845 847 848 849
771 763 759 754 751 751 752 753 753 754 757 761 763 765 768 772 775 778 781 786 790 794 798 801 806 809 812 815 818 822 825 827 829 832 835 837 839 840 843 844 846 846 848
778 770 762 756 752 749 747 747 748 749 751 754 756 760 763 767 770 773 776 780 785 789 794 797 801 805 809 812 816 820 823 825 827 830 833 836 838 840 842 843 844 846 847
784 778 771 764 757 751 747 744 743 745 747 749 750 754 757 761 764 768 771 775 779 784 790 795 798 802 805 810 814 819 821 824 827 829 832 835 837 839 840 841 843 845 847
787 781 777 770 761 755 749 746 742 741 743 745 746 748 750 755 758 761 765 769 774 777 783 788 794 799 803 808 812 818 819 822 824 827 829 831 834 837 839 840 841 843 845
795 788 783 776 768 761 755 751 749 743 740 740 742 743 745 749 754 756 758 762 768 773 779 784 790 795 799 801 806 810 820 823 822 823 826 828 830 833 836 838 840 841 843
801 794 789 782 774 766 757 751 745 740 738 736 737 738 740 743 747 750 752 755 761 767 771 777 782 791 791 795 798 800 815 816 819 821 822 825 827 829 834 836 837 839 841
806 801 794 785 779 767 759 753 750 747 741 736 735 734 734 736 739 742 745 749 753 759 764 769 776 784 787 790 794 794 797 800 811 818 819 820 823 825 829 833 835 837 839
812 805 796 788 783 768 762 757 753 746 742 736 732 730 729 731 732 733 737 740 745 750 756 761 767 770 779 780 788 790 793 797 800 806 811 815 819 820 824 827 830 833 835
811 804 798 790 780 773 767 760 755 747 742 737 731 726 723 723 726 727 729 732 737 743 749 754 759 765 770 778 782 780 786 791 795 799 805 809 812 816 819 823 825 828 831